Regional Weather Roundup
Issued by NWS

Current Version | Previous Version | Text Only | Print | Product List | Glossary On
Versions: 1 2 3 4 5 6 7 8 9 10 11 12 13 14 15 16 17 18 19 20 21 22 23 24 25 26 27 28 29 30 31 32 33 34 35 36 37 38 39 40 41 42 43 44 45 46 47 48 49 50
000
ASUS44 KOUN 051110
RWROK

WEATHER ROUNDUP FOR OKLAHOMA
NATIONAL WEATHER SERVICE NORMAN OK
600 AM CDT TUE MAY 05 2015

NOTE: "FAIR" INDICATES FEW OR NO CLOUDS BELOW 12,000 FEET WITH NO
      SIGNIFICANT WEATHER AND/OR OBSTRUCTIONS TO VISIBILITY.

OKZ001>007-009>012-014-015-017-051200-
NORTHWEST OKLAHOMA AND THE PANHANDLE

CITY           SKY/WX    TMP DP  RH WIND       PRES   REMARKS
GAGE           HVY RAIN  60  57  89 S18G25    29.95S FOG
GUYMON         LGT RAIN  59  57  93 CALM      29.93F
ENID/WOODRING  MOCLDY    59  55  88 E9        29.99S
$$

OKZ016-021>023-033>039-044-045-051200-
SOUTHWEST OKLAHOMA

CITY           SKY/WX    TMP DP  RH WIND       PRES   REMARKS
LAWTON/REGL    CLOUDY    63  54  72 SE8       29.98R
LAWTON/FT SILL CLOUDY    63  56  78 SE10      29.97R
FREDERICK      CLOUDY    64  54  69 SE14      29.94R
CLINTON        CLOUDY    65  54  67 S17G24    29.97S
HOBART         CLOUDY    64  54  69 S16       29.96R
ALTUS AFB      CLOUDY    62  59  90 SE12      29.95R
$$

OKZ018>020-024>031-051200-
CENTRAL OKLAHOMA

CITY           SKY/WX    TMP DP  RH WIND       PRES   REMARKS
OKLAHOMA CITY  MOCLDY    61  54  77 SE12      30.01R
OKC/WILEY POST MOCLDY    64  54  69 SE15      30.00S
OKC/TINKER AFB MOCLDY    59  54  83 SE9       30.01S
STILLWATER     CLOUDY    61  54  77 SE10      30.02S
GUTHRIE        MOCLDY    61  54  77 SE8       30.01S
$$

OKZ008-013-054>072-051200-
NORTHEAST OKLAHOMA

CITY           SKY/WX    TMP DP  RH WIND       PRES   REMARKS
TULSA          MOCLDY    60  55  83 SE7       30.05S
TULSA/JONES    MOCLDY    56  55  97 CALM      30.06R
PONCA CITY     CLOUDY    61  55  81 SE10      30.03S
BARTLESVILLE   PTCLDY    52  51  97 CALM      30.07F FOG
MUSKOGEE       PTCLDY    59  56  89 SE3       30.08S
$$

OKZ032-040>043-046>053-073>077-051200-
SOUTH CENTRAL/SOUTHEAST OKLAHOMA

CITY           SKY/WX    TMP DP  RH WIND       PRES   REMARKS
ARDMORE/DWNTWN MOCLDY    61  55  82 SE3       30.02R
MCALESTER      MOCLDY    62  55  77 E6        30.07R
$$



USA.gov is the U.S. government's official web portal to all federal, state and local government web resources and services.